[[{"header":{"parameterUnit":"m.s-1","parameterCategory":1,"la1":30.2992,"la2":30.254,"lo1":-89.0895,"lo2":-89.0443,"dy":0.0025,"dx":0.0025,"nx":19,"ny":19,"refTime":"2026-05-23T21:00:00:Z","depth":0,"parameterNumber":2,"parameterNumberName":"U-component_of_WINDS"},"data":[0,0,0,2.1098,2.1095,2.0977,2.0977,2.0847,2.0847,0,0,0,0,0,0,0,0,0,0,0,2.1149,2.1148,2.1098,2.1095,2.0977,2.0977,2.0848,2.0847,0,0,0,0,0,0,0,0,0,0,0,2.1149,2.1148,2.1148,2.1095,2.0977,2.0976,2.0848,2.0929,0,0,0,0,0,0,0,0,0,0,2.1039,2.1103,2.1148,2.1148,2.1094,2.0978,2.0976,2.0932,2.0924,2.0911,0,2.0907,0,2.0875,2.084,2.0839,0,0,0,2.1083,2.111,2.1064,2.1148,2.1093,2.0978,2.1027,2.0927,2.0917,2.09,2.0905,2.0899,2.0873,2.0839,2.0838,2.0811,2.0811,0,0,2.1089,2.1136,2.1071,2.1058,2.1081,2.1031,2.1024,2.0921,2.0928,2.0904,2.0896,2.0871,2.0838,2.0837,2.081,2.0811,0,0,0,2.1116,2.1141,2.1096,2.1064,2.1042,2.1028,2.1019,2.0933,2.0914,2.0894,2.0869,2.0838,2.0836,2.081,2.081,2.0877,0,0,0,2.112,2.1157,2.11,2.1127,2.1044,2.0986,2.1034,2.0922,2.0908,2.087,2.0838,2.0835,2.0809,2.081,2.0874,2.0901,0,0,0,2.1151,2.116,2.1149,2.113,2.1081,2.0987,2.0962,2.0918,2.0894,2.0839,2.0835,2.0809,2.081,2.0871,2.0896,2.0905,0,0,0,2.1197,2.1211,2.1151,2.1155,2.1082,2.103,2.0962,2.0921,2.0882,2.0837,2.0809,2.081,2.0871,2.0894,2.0903,2.0921,2.0933,0,0,2.124,2.1218,2.1217,2.1159,2.1129,2.1044,2.1022,2.0943,2.0895,2.0841,2.0839,2.0875,2.0896,2.0905,2.0987,2.0997,0,0,0,2.1246,2.1246,2.1228,2.1193,2.1133,2.1081,2.1,2.0969,2.0921,2.0878,2.088,2.0891,2.0894,2.09,2.0909,2.0907,2.0816,2.0816,2.0815,2.1374,2.1311,2.1304,2.1226,2.1193,2.1107,2.1073,2.1016,2.0964,2.0965,2.0949,2.1007,2.1016,2.1022,2.1021,2.0954,2.0954,2.0954,2.0954,2.143,2.1419,2.1346,2.1313,2.1245,2.1215,2.1131,2.1094,2.1055,2.1015,2.1014,2.0975,2.1035,2.103,2.0959,2.0958,2.0957,2.0957,2.0957,2.1507,2.149,2.1452,2.1393,2.1353,2.1272,2.1237,2.1176,2.1119,2.1119,2.1092,2.1091,2.1081,2.111,2.1111,2.1111,2.1111,2.1111,2.1111,2.1601,2.1556,2.1535,2.1469,2.1436,2.1385,2.1296,2.1261,2.1207,2.1165,2.1164,2.1109,2.1053,2.104,2.1114,2.1114,2.1113,2.1113,2.1113,2.1679,2.1651,2.1619,2.1586,2.1501,2.1463,2.1385,2.1319,2.1281,2.1265,2.1208,2.1178,2.115,2.1143,2.1131,2.1224,2.1224,2.1224,2.1224,2.1743,2.1723,2.1674,2.1624,2.1569,2.1494,2.1455,2.1384,2.1306,2.1277,2.1254,2.1234,2.1229,2.1204,2.1195,2.1183,2.1288,2.1288,2.1288,2.1787,2.1757,2.1738,2.1662,2.159,2.1528,2.1488,2.1431,2.1337,2.1289,2.1253,2.125,2.1216,2.1208,2.1162,2.115,2.1126,0,0]},{"header":{"parameterUnit":"m.s-1","parameterCategory":1,"la1":30.2992,"la2":30.254,"lo1":-89.0895,"lo2":-89.0443,"dy":0.0025,"dx":0.0025,"nx":19,"ny":19,"refTime":"2026-05-23T21:00:00:Z","depth":0,"parameterNumber":3,"parameterNumberName":"V-component_of_WINDS"},"data":[0,0,0,0.288,0.2879,0.28,0.28,0.2683,0.2682,0,0,0,0,0,0,0,0,0,0,0,0.2897,0.2896,0.288,0.2878,0.28,0.28,0.2683,0.2682,0,0,0,0,0,0,0,0,0,0,0,0.2898,0.2897,0.2895,0.2878,0.28,0.28,0.2683,0.2748,0,0,0,0,0,0,0,0,0,0,0.2826,0.2837,0.2897,0.2895,0.2878,0.28,0.28,0.2751,0.2744,0.2713,0,0.2687,0,0.2683,0.2673,0.2673,0,0,0,0.2882,0.2843,0.2828,0.2895,0.2877,0.28,0.2836,0.2747,0.2739,0.2703,0.2685,0.2681,0.2681,0.2672,0.2672,0.2489,0.2488,0,0,0.2886,0.2879,0.2834,0.2822,0.2837,0.2839,0.2834,0.2742,0.2721,0.2685,0.2679,0.2679,0.2672,0.2671,0.249,0.2489,0,0,0,0.2896,0.2882,0.2869,0.2827,0.2814,0.2836,0.2831,0.2725,0.2722,0.2678,0.2678,0.2671,0.2669,0.2491,0.249,0.2432,0,0,0,0.2899,0.2888,0.2871,0.2865,0.2816,0.2769,0.2815,0.2728,0.2718,0.2678,0.2671,0.2668,0.2493,0.2491,0.2436,0.2404,0,0,0,0.2904,0.2888,0.2875,0.2865,0.2832,0.2771,0.2763,0.2726,0.2718,0.2673,0.2668,0.2493,0.2491,0.2439,0.241,0.2352,0,0,0,0.2907,0.2824,0.2874,0.2781,0.2832,0.2738,0.2763,0.2692,0.2647,0.267,0.2492,0.249,0.244,0.2414,0.2356,0.23,0.2277,0,0,0.2798,0.281,0.2756,0.2799,0.2694,0.275,0.2634,0.2599,0.26,0.2525,0.2521,0.2434,0.241,0.2353,0.2156,0.2138,0,0,0,0.2719,0.2679,0.2653,0.2611,0.2584,0.2557,0.254,0.2527,0.2464,0.2561,0.24,0.2385,0.2352,0.2325,0.231,0.228,0.2478,0.2479,0.2479,0.2551,0.2559,0.2469,0.2468,0.2427,0.2411,0.2377,0.2355,0.2375,0.2336,0.2313,0.2193,0.2162,0.215,0.2119,0.2287,0.2287,0.2286,0.2286,0.2389,0.2333,0.2363,0.2286,0.2294,0.2228,0.2209,0.2224,0.2162,0.2212,0.2182,0.2233,0.213,0.2103,0.2282,0.2283,0.2283,0.2284,0.2284,0.2277,0.2251,0.2239,0.2179,0.2131,0.2133,0.2071,0.2081,0.2089,0.2061,0.2035,0.2036,0.2036,0.2049,0.2049,0.2048,0.2048,0.2048,0.2047,0.2164,0.2153,0.2102,0.2067,0.2041,0.2007,0.1991,0.1964,0.1936,0.1948,0.1947,0.1968,0.2121,0.2157,0.2041,0.2042,0.2043,0.2043,0.2044,0.1991,0.2032,0.1953,0.1928,0.1886,0.1836,0.1852,0.1796,0.1776,0.1744,0.1772,0.1885,0.1897,0.1909,0.1939,0.1773,0.1773,0.1773,0.1773,0.1894,0.1903,0.1824,0.1782,0.1741,0.1747,0.1653,0.1639,0.163,0.1617,0.1643,0.1685,0.1697,0.1702,0.1719,0.1746,0.1535,0.1535,0.1535,0.1786,0.1792,0.1711,0.1707,0.1676,0.1647,0.1559,0.1505,0.1504,0.1525,0.1606,0.1616,0.1683,0.1706,0.1725,0.1751,0.1802,0,0]}]]